WX1N Weather Reports


Display with metric or nautical units.
time (UTC)temp
F
wind
direction
speed
MPH
gust
MPH
rain 1hr
in
rain 24hr
in
rain mn
in
humidity
%
barometer
mb
20260505125003 59 0 0.0 0.0 0.00 0.00 0.00 71 1006.8
20260505124503 58 0 0.0 0.0 0.00 0.00 0.00 74 1006.8
20260505124004 57 0 0.0 0.0 0.00 0.00 0.00 74 1006.7
20260505123504 57 0 0.0 0.0 0.00 0.00 0.00 74 1006.8
20260505123003 56 0 0.0 0.0 0.00 0.00 0.00 74 1006.8
20260505122504 56 0 0.0 0.0 0.00 0.00 0.00 74 1006.7
20260505122003 56 0 0.0 0.0 0.00 0.00 0.00 75 1006.7
20260505121503 56 0 0.0 0.0 0.00 0.00 0.00 74 1006.8
20260505121003 56 0 0.0 0.0 0.00 0.00 0.00 74 1006.6
20260505120503 56 0 0.0 0.0 0.00 0.00 0.00 73 1006.6
20260505120005 56 0 0.0 0.0 0.00 0.00 0.00 73 1006.5
20260505115503 56 0 0.0 0.0 0.00 0.00 0.00 72 1006.5
20260505115004 56 0 0.0 0.0 0.00 0.00 0.00 73 1006.9
20260505114503 56 0 0.0 0.0 0.00 0.00 0.00 73 1006.9
20260505114004 55 0 0.0 0.0 0.00 0.00 0.00 74 1007.1
20260505113503 55 0 0.0 0.0 0.00 0.00 0.00 75 1007.2
20260505113004 55 0 0.0 0.0 0.00 0.00 0.00 76 1007.3
20260505112504 54 0 0.0 0.0 0.00 0.00 0.00 77 1007.2
20260505112003 54 0 0.0 0.0 0.00 0.00 0.00 77 1007.2
20260505111504 54 0 0.0 0.0 0.00 0.00 0.00 78 1007.1
20260505111003 53 0 0.0 0.0 0.00 0.00 0.00 78 1007.0
20260505110504 53 0 0.0 0.0 0.00 0.00 0.00 79 1007.1
20260505102004 48 0 0.0 0.0 0.00 0.00 0.00 84 1006.6
20260505101503 48 0 0.0 0.0 0.00 0.00 0.00 84 1006.7
20260505101004 48 0 0.0 0.0 0.00 0.00 0.00 83 1006.6
20260505100503 48 0 0.0 0.0 0.00 0.00 0.00 83 1006.5
20260505100004 48 0 0.0 0.0 0.00 0.00 0.00 83 1006.7
20260505095504 48 0 0.0 0.0 0.00 0.00 0.00 83 1006.6
20260505095003 48 0 0.0 0.0 0.00 0.00 0.00 83 1006.6
20260505094504 48 0 0.0 0.0 0.00 0.00 0.00 81 1006.6
20260505094004 49 0 0.0 0.0 0.00 0.00 0.00 80 1006.7
20260505093503 50 0 0.0 0.0 0.00 0.00 0.00 79 1006.6
20260505093004 50 0 0.0 0.0 0.00 0.00 0.00 79 1006.6
20260505092503 51 0 0.0 0.0 0.00 0.00 0.00 78 1006.7
20260505092004 51 0 0.0 0.0 0.00 0.00 0.00 78 1006.7
20260505091504 51 0 0.0 0.0 0.00 0.00 0.00 77 1006.8
20260505091003 52 0 0.0 0.0 0.00 0.00 0.00 77 1006.9
20260505090504 52 0 0.0 0.0 0.00 0.00 0.00 77 1006.8
20260505090003 52 0 0.0 0.0 0.00 0.00 0.00 78 1006.9
20260505085504 52 0 0.0 0.0 0.00 0.00 0.00 78 1006.9
20260505085003 52 0 0.0 0.0 0.00 0.00 0.00 78 1006.9
20260505084504 52 0 0.0 0.0 0.00 0.00 0.00 77 1006.9
20260505084003 52 0 0.0 0.0 0.00 0.00 0.00 77 1007.0
20260505083504 52 0 0.0 0.0 0.00 0.00 0.00 77 1007.0
20260505083003 52 0 0.0 0.0 0.00 0.00 0.00 77 1006.9
20260505082504 52 0 0.0 0.0 0.00 0.00 0.00 78 1006.9
20260505082004 52 0 0.0 0.0 0.00 0.00 0.00 78 1006.8
20260505081503 51 0 0.0 0.0 0.00 0.00 0.00 78 1006.8
20260505081004 51 0 0.0 0.0 0.00 0.00 0.00 78 1006.8
20260505080503 51 0 0.0 0.0 0.00 0.00 0.00 78 1006.8
20260505080004 51 0 0.0 0.0 0.00 0.00 0.00 78 1006.8
20260505075504 51 0 0.0 0.0 0.00 0.00 0.00 77 1006.8
20260505075003 52 0 0.0 0.0 0.00 0.00 0.00 77 1006.8
20260505074504 52 0 0.0 0.0 0.00 0.00 0.00 77 1006.8
20260505074003 52 0 0.0 0.0 0.00 0.00 0.00 77 1006.8
20260505073504 52 0 0.0 0.0 0.00 0.00 0.00 77 1006.8
20260505073003 51 0 0.0 0.0 0.00 0.00 0.00 79 1006.8
20260505072504 50 0 0.0 0.0 0.00 0.00 0.00 82 1006.8
20260505072004 49 0 0.0 0.0 0.00 0.00 0.00 83 1006.9
20260505071503 48 0 0.0 0.0 0.00 0.00 0.00 84 1006.9
20260505071004 47 0 0.0 0.0 0.00 0.00 0.00 85 1006.9
20260505070503 46 0 0.0 0.0 0.00 0.00 0.00 85 1007.1
20260505070004 46 0 0.0 0.0 0.00 0.00 0.00 82 1007.1
20260505065504 47 0 0.0 0.0 0.00 0.00 0.00 80 1007.1
20260505065003 48 0 0.0 0.0 0.00 0.00 0.00 80 1007.2
20260505064504 48 0 0.0 0.0 0.00 0.00 0.00 80 1007.2
20260505064004 49 0 0.0 0.0 0.00 0.00 0.00 78 1007.1
20260505063504 50 0 0.0 0.0 0.00 0.00 0.00 77 1007.2
20260505063004 50 0 0.0 0.0 0.00 0.00 0.00 76 1007.2
20260505062503 50 0 0.0 0.0 0.00 0.00 0.00 75 1007.2
20260505062004 51 0 0.0 0.0 0.00 0.00 0.00 75 1007.2
20260505061504 52 0 0.0 0.0 0.00 0.00 0.00 74 1007.2
20260505061004 52 0 0.0 0.0 0.00 0.00 0.00 72 1007.2
20260505060504 53 0 0.0 0.0 0.00 0.00 0.00 69 1007.2
20260505060004 54 0 0.0 0.0 0.00 0.00 0.00 68 1007.3
20260505055504 55 0 0.0 0.0 0.00 0.00 0.00 68 1007.2
20260505055004 55 0 0.0 0.0 0.00 0.00 0.00 67 1007.2
20260505054504 55 0 0.0 0.0 0.00 0.00 0.00 67 1007.2
20260505054004 55 0 0.0 0.0 0.00 0.00 0.00 66 1007.2
20260505053502 56 0 0.0 0.0 0.00 0.00 0.00 66 1007.2
20260505053003 56 0 0.0 0.0 0.00 0.00 0.00 65 1007.2
20260505052502 56 0 0.0 0.0 0.00 0.00 0.00 65 1007.2
20260505052003 56 0 0.0 0.0 0.00 0.00 0.00 66 1007.2
20260505051502 56 0 0.0 0.0 0.00 0.00 0.00 66 1007.3
20260505051003 56 0 0.0 0.0 0.00 0.00 0.00 66 1007.3
20260505050502 56 0 0.0 0.0 0.00 0.00 0.00 66 1007.4
20260505041502 55 0 0.0 0.0 0.00 0.00 0.00 66 1007.0
20260505041003 55 0 0.0 0.0 0.00 0.00 0.00 66 1007.0
20260505040502 56 0 0.0 0.0 0.00 0.00 0.00 64 1007.1
20260505040002 57 0 0.0 0.0 0.00 0.00 0.00 62 1007.0
20260505035503 58 0 0.0 0.0 0.00 0.00 0.00 62 1007.0
20260505035002 58 0 0.0 0.0 0.00 0.00 0.00 62 1007.0
20260505034502 58 0 0.0 0.0 0.00 0.00 0.00 61 1006.9
20260505034002 58 0 0.0 0.0 0.00 0.00 0.00 61 1006.8
20260505033502 59 0 0.0 0.0 0.00 0.00 0.00 59 1006.8
20260505033002 59 0 0.0 0.0 0.00 0.00 0.00 59 1006.7
20260505032502 59 0 0.0 0.0 0.00 0.00 0.00 58 1006.7
20260505032002 59 0 0.0 0.0 0.00 0.00 0.00 58 1006.7
20260505031502 59 0 0.0 0.0 0.00 0.00 0.00 58 1006.7
20260505031003 60 0 0.0 0.0 0.00 0.00 0.00 58 1006.7
20260505030502 60 0 0.0 0.0 0.00 0.00 0.00 57 1006.7
20260505030003 60 0 0.0 0.0 0.00 0.00 0.00 57 1006.6
20260505025502 60 0 0.0 0.0 0.00 0.00 0.00 56 1006.6
20260505025003 59 0 0.0 0.0 0.00 0.00 0.00 57 1006.4
20260505024502 59 0 0.0 0.0 0.00 0.00 0.00 58 1006.4
20260505024002 58 0 0.0 0.0 0.00 0.00 0.00 61 1006.5
20260505023503 58 0 0.0 0.0 0.00 0.00 0.00 62 1006.5
20260505023002 54 0 0.0 0.0 0.00 0.00 0.00 68 1006.4
20260505022503 51 0 0.0 0.0 0.00 0.00 0.00 76 1006.4
20260505022002 50 0 0.0 0.0 0.00 0.00 0.00 79 1006.4
20260505021503 50 0 0.0 0.0 0.00 0.00 0.00 80 1006.3
20260505021002 50 0 0.0 0.0 0.00 0.00 0.00 80 1006.3
20260505020502 50 0 0.0 0.0 0.00 0.00 0.00 80 1006.3
20260505020003 50 0 0.0 0.0 0.00 0.00 0.00 80 1006.2
20260505015502 50 0 0.0 0.0 0.00 0.00 0.00 78 1006.1
20260505015003 51 0 0.0 0.0 0.00 0.00 0.00 78 1006.1
20260505014502 51 0 0.0 0.0 0.00 0.00 0.00 78 1006.2
20260505014003 51 0 0.0 0.0 0.00 0.00 0.00 77 1006.1
20260505013502 52 0 0.0 0.0 0.00 0.00 0.00 76 1006.2
20260505013002 52 0 0.0 0.0 0.00 0.00 0.00 76 1006.2
20260505012503 52 0 0.0 0.0 0.00 0.00 0.00 75 1006.1
20260505012002 53 0 0.0 0.0 0.00 0.00 0.00 73 1006.1
20260505011503 53 0 0.0 0.0 0.00 0.00 0.00 72 1006.0
20260505011002 53 0 0.0 0.0 0.00 0.00 0.00 71 1006.0
20260505010503 54 0 0.0 0.0 0.00 0.00 0.00 68 1005.9
20260505010003 54 0 0.0 0.0 0.00 0.00 0.00 67 1005.8
20260505005502 55 0 0.0 0.0 0.00 0.00 0.00 67 1005.8
20260505005003 56 0 0.0 0.0 0.00 0.00 0.00 65 1005.8
20260505004502 56 0 0.0 0.0 0.00 0.00 0.00 61 1005.6
20260505004003 57 0 0.0 0.0 0.00 0.00 0.00 60 1005.6
20260505003503 58 0 0.0 0.0 0.00 0.00 0.00 62 1005.7
20260505003002 58 0 0.0 0.0 0.00 0.00 0.00 60 1005.6
20260505002503 59 0 0.0 0.0 0.00 0.00 0.00 57 1005.5
20260505002002 60 0 0.0 0.0 0.00 0.00 0.00 56 1005.4
20260505001503 61 0 0.0 0.0 0.00 0.00 0.00 51 1005.3
20260505001002 62 0 0.0 0.0 0.00 0.00 0.00 51 1005.3
20260505000503 62 0 0.0 0.0 0.00 0.00 0.00 49 1005.3
20260505000003 63 0 0.0 0.0 0.00 0.00 0.00 49 1005.1
20260504235502 63 0 0.0 0.0 0.00 0.00 0.00 48 1005.0
20260504235003 64 0 0.0 0.0 0.00 0.00 0.00 47 1005.0
20260504234502 65 0 0.0 0.0 0.00 0.00 0.00 45 1004.9
20260504234002 66 0 0.0 0.0 0.00 0.00 0.00 44 1004.8
20260504233502 66 0 0.0 0.0 0.00 0.00 0.00 43 1004.7
20260504233003 66 0 0.0 0.0 0.00 0.00 0.00 42 1004.7
20260504232503 67 0 0.0 0.0 0.00 0.00 0.00 41 1004.6
20260504232002 68 0 0.0 0.0 0.00 0.00 0.00 41 1004.5
20260504231503 68 0 0.0 0.0 0.00 0.00 0.00 38 1004.4
20260504231003 68 0 0.0 0.0 0.00 0.00 0.00 38 1004.5
20260504230502 69 0 0.0 0.0 0.00 0.00 0.00 38 1004.4
20260504230003 69 0 0.0 0.0 0.00 0.00 0.00 37 1004.3
20260504225502 69 0 0.0 0.0 0.00 0.00 0.00 37 1004.2
20260504225003 69 0 0.0 0.0 0.00 0.00 0.00 38 1004.2
20260504224502 69 0 0.0 0.0 0.00 0.00 0.00 37 1004.2
20260504224003 69 0 0.0 0.0 0.00 0.00 0.00 37 1004.2
20260504223502 69 0 0.0 0.0 0.00 0.00 0.00 36 1004.2
20260504223003 69 0 0.0 0.0 0.00 0.00 0.00 38 1004.1
20260504222503 69 0 0.0 0.0 0.00 0.00 0.00 37 1004.1
20260504222002 69 0 0.0 0.0 0.00 0.00 0.00 39 1004.2
20260504221503 70 0 0.0 0.0 0.00 0.00 0.00 38 1004.1
20260504221002 70 0 0.0 0.0 0.00 0.00 0.00 37 1004.0
20260504220503 70 0 0.0 0.0 0.00 0.00 0.00 38 1004.1
20260504220003 70 0 0.0 0.0 0.00 0.00 0.00 38 1003.9
20260504215502 70 0 0.0 0.0 0.00 0.00 0.00 37 1003.9
20260504215003 71 0 0.0 0.0 0.00 0.00 0.00 36 1003.9
20260504214502 71 0 0.0 0.0 0.00 0.00 0.00 38 1003.9
20260504214002 71 0 0.0 0.0 0.00 0.00 0.00 34 1003.9
20260504213503 70 0 0.0 0.0 0.00 0.00 0.00 37 1004.1
20260504213002 70 0 0.0 0.0 0.00 0.00 0.00 38 1004.2
20260504212503 70 0 0.0 0.0 0.00 0.00 0.00 36 1004.2
20260504212002 70 0 0.0 0.0 0.00 0.00 0.00 36 1004.2
20260504211503 71 0 0.0 0.0 0.00 0.00 0.00 36 1004.3
20260504211003 71 0 0.0 0.0 0.00 0.00 0.00 36 1004.3
20260504210502 71 0 0.0 0.0 0.00 0.00 0.00 37 1004.2
20260504210003 70 0 0.0 0.0 0.00 0.00 0.00 37 1004.3
20260504205502 70 0 0.0 0.0 0.00 0.00 0.00 37 1004.3
20260504205003 70 0 0.0 0.0 0.00 0.00 0.00 38 1004.3
20260504204502 70 0 0.0 0.0 0.00 0.00 0.00 37 1004.3
20260504204003 71 0 0.0 0.0 0.00 0.00 0.00 36 1004.4
20260504203503 71 0 0.0 0.0 0.00 0.00 0.00 37 1004.5
20260504203003 70 0 0.0 0.0 0.00 0.00 0.00 36 1004.3
20260504202502 70 0 0.0 0.0 0.00 0.00 0.00 37 1004.4
20260504202003 71 0 0.0 0.0 0.00 0.00 0.00 36 1004.4
20260504201502 71 0 0.0 0.0 0.00 0.00 0.00 35 1004.4
20260504201003 71 0 0.0 0.0 0.00 0.00 0.00 37 1004.6
20260504200502 72 0 0.0 0.0 0.00 0.00 0.00 36 1004.6
20260504200003 72 0 0.0 0.0 0.00 0.00 0.00 36 1004.5
20260504195502 71 0 0.0 0.0 0.00 0.00 0.00 38 1004.4
20260504195003 72 0 0.0 0.0 0.00 0.00 0.00 35 1004.6
20260504194502 72 0 0.0 0.0 0.00 0.00 0.00 34 1004.6
20260504194002 72 0 0.0 0.0 0.00 0.00 0.00 37 1004.8
20260504193503 72 0 0.0 0.0 0.00 0.00 0.00 36 1004.8
20260504193002 72 0 0.0 0.0 0.00 0.00 0.00 40 1004.7
20260504192503 71 0 0.0 0.0 0.00 0.00 0.00 36 1004.7
20260504192002 70 0 0.0 0.0 0.00 0.00 0.00 38 1004.8
20260504191503 70 0 0.0 0.0 0.00 0.00 0.00 38 1004.7
20260504191003 71 0 0.0 0.0 0.00 0.00 0.00 36 1004.8
20260504190502 70 0 0.0 0.0 0.00 0.00 0.00 37 1004.8
20260504190003 70 0 0.0 0.0 0.00 0.00 0.00 38 1004.8
20260504185502 69 0 0.0 0.0 0.00 0.00 0.00 41 1004.9
20260504185003 69 0 0.0 0.0 0.00 0.00 0.00 38 1004.7
20260504184502 69 0 0.0 0.0 0.00 0.00 0.00 40 1004.8
20260504184003 69 0 0.0 0.0 0.00 0.00 0.00 37 1004.9
20260504183502 70 0 0.0 0.0 0.00 0.00 0.00 36 1004.8
20260504183003 70 0 0.0 0.0 0.00 0.00 0.00 36 1004.9
20260504182503 71 0 0.0 0.0 0.00 0.00 0.00 37 1004.8
20260504182002 71 0 0.0 0.0 0.00 0.00 0.00 36 1004.9
20260504181503 70 0 0.0 0.0 0.00 0.00 0.00 38 1004.8
20260504181002 69 0 0.0 0.0 0.00 0.00 0.00 39 1005.0
20260504180503 67 0 0.0 0.0 0.00 0.00 0.00 39 1005.1
20260504180003 66 0 0.0 0.0 0.00 0.00 0.00 44 1005.2
20260504175502 66 0 0.0 0.0 0.00 0.00 0.00 42 1005.2
20260504175003 65 0 0.0 0.0 0.00 0.00 0.00 43 1005.2
20260504174503 65 0 0.0 0.0 0.00 0.00 0.00 42 1005.1
20260504174002 65 0 0.0 0.0 0.00 0.00 0.00 43 1005.3
20260504173503 65 0 0.0 0.0 0.00 0.00 0.00 43 1005.3
20260504173003 65 0 0.0 0.0 0.00 0.00 0.00 41 1005.3
20260504172503 66 0 0.0 0.0 0.00 0.00 0.00 43 1005.3
20260504172002 66 0 0.0 0.0 0.00 0.00 0.00 43 1005.3
20260504171503 66 0 0.0 0.0 0.00 0.00 0.00 42 1005.3
20260504171003 67 0 0.0 0.0 0.00 0.00 0.00 42 1005.3
20260504170503 67 0 0.0 0.0 0.00 0.00 0.00 39 1005.2
20260504151002 60 0 0.0 0.0 0.00 0.00 0.00 46 1006.5
20260504150503 60 0 0.0 0.0 0.00 0.00 0.00 46 1006.6
20260504141003 59 0 0.0 0.0 0.00 0.00 0.00 50 1006.6
20260504140503 59 0 0.0 0.0 0.00 0.00 0.00 51 1006.7